"Pseudo-MPEC" for C0Z1JL1 = ZTF0Csc = C21KXA2 = ZTF0Czu = 'Multijunk'

Click here for an updated pseudo-MPEC. Since this one was issued, the object was picked up again as ZTF0D8Q and ZTF0D8g.

TLEs are available for this object, and for some of the other objects on these pages. Be warned that, for reasons discussed below, the TLEs for this particular object may not be all that good. In fact, they're probably decent for a few days around the observations shown below, and garbage before and after that.

This is a recrudescence of 'Multijunk' = C05GHG1 = many other designations, an unidentified Empty Trash Bag Object (ETBO). We last saw it in April, but sightings go back to 2017 and possibly 2016; it can be hard to link one appearance with another, because it gets blown around a lot by solar radiation. If it wasn't "anchored" by being in Earth orbit, the sun's light pressure would be considerably more forceful on it than the sun's gravity, and it would fly away from the sun in an (outward-curved) hyperbola, as if it were some sort of antigravity.

It has now been on NEOCP more than twenty times, having been found multiple times each by Catalina, ATLAS, and ZTF.

As with other ETBOs, it can't be tracked with any degree of certainty more than a few days in advance. It will probably move around a bit such that apogee is on the daylit side of the earth; we'll lose it for another few months or a year, and then it'll start showing up on NEOCP again. With luck, those semi-random changes will cause the perigee to drop into the earth's atmosphere; with such a high area/mass ratio, it wouldn't last very long.

Created 2020 Feb 3 13:19:58 UT using Find_Orb

Click here for an explanation of pseudo-MPECs

 
 Astrometry: 
     C0Z1JL1* C2020 01 30.32531 09 07 24.87 +05 27 27.0    ~1U8bx17.6 GVNEOCP703
     C0Z1JL1  C2020 01 30.33058 09 07 50.41 +05 24 27.6    ~1U8bx18.1 GVNEOCP703
     C0Z1JL1  C2020 01 30.34114 09 08 42.85 +05 18 05.3    ~1U8bx18.8 GVNEOCP703
     C0Z1JL1  C2020 01 30.38473 09 12 27.51 +04 50 27.6    ~1U9bx17.7 GVNEOCPI52
     C0Z1JL1  C2020 01 30.38512 09 12 29.61 +04 50 11.9    ~1U9bx17.7 GVNEOCPI52
     C0Z1JL1  C2020 01 30.38551 09 12 31.71 +04 49 56.5    ~1U9bx17.6 GVNEOCPI52
     C0Z1JL1  C2020 01 30.38590 09 12 33.81 +04 49 41.0    ~1U9bx17.8 GVNEOCPI52
     ZTF0Csc* C2020 02 01.20989608 26 39.39 +08 11 17.8    ~21J7 17.84RUNEOCPI41
     ZTF0Csc  C2020 02 01.21024308 26 40.95 +08 11 11.2    ~21J7 17.84RUNEOCPI41
     C21KXA2* C2020 02 01.24362 08 28 10.71 +08 03 18.3    ~21Dj 18.6 GVNEOCPG96
     C21KXA2  C2020 02 01.24922 08 28 32.83 +08 01 16.5    ~21Dj 18.0 GVNEOCPG96
     ZTF0Csc  C2020 02 01.25237308 29 42.50 +07 56 55.5    ~21J7 18.29gUNEOCPI41
     ZTF0Csc  C2020 02 01.25272008 29 43.89 +07 56 47.8    ~21J7 18.29gUNEOCPI41
     C21KXA2  C2020 02 01.25606 08 28 59.75 +07 58 45.1    ~21Dj 17.8 GVNEOCPG96
     C21KXA2  C2020 02 01.26166 08 29 21.70 +07 56 37.5    ~21Dj 18.0 GVNEOCPG96
     C21KXA2  C2020 02 01.28714908 30 22.26 +07 42 24.0    ~21Dj 17.7 GVNEOCPH01
     ZTF0Csc  C2020 02 01.28994208 32 12.68 +07 42 42.7    ~21J7 17.84RUNEOCPI41
     ZTF0Csc  C2020 02 01.29028908 32 14.01 +07 42 35.4    ~21J7 17.84RUNEOCPI41
     C21KXA2  C2020 02 01.29042008 30 34.93 +07 41 02.6    ~21Dj 17.7 GVNEOCPH01
     C21KXA2  C2020 02 01.29403 08 31 26.17 +07 43 47.4    ~21Dj 17.8 GVNEOCPI52
     C21KXA2  C2020 02 01.29416 08 31 26.68 +07 43 44.2    ~21Dj 17.7 GVNEOCPI52
     C21KXA2  C2020 02 01.29429 08 31 27.16 +07 43 40.7    ~21Dj 17.7 GVNEOCPI52
     C21KXA2  C2020 02 01.29443 08 31 27.69 +07 43 38.0    ~21Dj 17.8 GVNEOCPI52
     C21KXA2  C2020 02 01.30191308 31 19.49 +07 36 11.9    ~21Dj 17.8 GVNEOCPH01
     C21KXA2  C2020 02 01.30899508 31 47.08 +07 33 08.6    ~21Dj 17.7 GVNEOCPH01
     C21KXA2  C2020 02 01.37469 08 36 44.73 +07 07 26.5    ~21Dj       VNEOCPI52
     C21KXA2  C2020 02 01.37494 08 36 45.80 +07 07 19.4    ~21Dj 17.7 GVNEOCPI52
     C21KXA2  C2020 02 01.37518 08 36 46.78 +07 07 12.4    ~21Dj 17.7 GVNEOCPI52
     C21KXA2  C2020 02 01.48180 08 45 39.58 +06 10 57.4    ~21Dj 18.2 GVNEOCPG96
     C21KXA2  C2020 02 01.48189 08 45 40.11 +06 10 54.1    ~21Dj 18.0 GVNEOCPG96
     C21KXA2  C2020 02 01.48199 08 45 40.70 +06 10 51.0    ~21Dj 17.9 GVNEOCPG96
     C21KXA2  C2020 02 01.48208 08 45 41.24 +06 10 47.9    ~21Dj 18.0 GVNEOCPG96
     ZTF0Czu* C2020 02 03.20172507 53 38.83 +09 45 48.9    ~23DD 17.57RUNEOCPI41
     ZTF0Czu  C2020 02 03.20207207 53 40.51 +09 45 42.4    ~23DD 17.57RUNEOCPI41
     ZTF0Czu  C2020 02 03.20217607 53 40.93 +09 45 41.0    ~23DD 17.52RUNEOCPI41
     ZTF0Czu  C2020 02 03.20252307 53 42.65 +09 45 34.8    ~23DD 17.52RUNEOCPI41

Station data:
(703) Catalina Sky Survey  (N32.417006 W110.732640)  US/Arizona.  Observer D.
   C. Fuls. Measurers E. J. Christensen, G. A. Farneth, D. C. Fuls, A. R.
   Gibbs, A. D. Grauer, H. Gröller, R. A. Kowalski, S. M. Larson, G. J.
   Leonard, T. A. Pruyne, D. Rankin, R. L. Seaman, F. C. Shelly, K. W.
   Wierzchos. 0.68-m Schmidt + 10K CCD.
(G96) Mt. Lemmon Survey  (N32.442754 W110.788720)  US/Arizona.  Observer D.
   Rankin. Measurers E. J. Christensen, G. A. Farneth, D. C. Fuls, A. R.
   Gibbs, A. D. Grauer, H. Gröller, R. A. Kowalski, S. M. Larson, G. J.
   Leonard, T. A. Pruyne, D. Rankin, R. L. Seaman, F. C. Shelly, K. W.
   Wierzchos. 1.5-m reflector + 10K CCD.
(H01) Magdalena Ridge Observatory, Socorro  (N33.984833 W107.189333)  US/New
   Mexico.  Observers W. H. Ryan, E. V. Ryan. Measurer W. H. Ryan. 2.4-m
   f/8.9 reflector + CCD.
(I41) Palomar Mountain--ZTF  (N33.357340 W116.859780)  US/California. 1.2-m
   f/2.44 Oschin Schmidt + CCD.
(I52) Steward Observatory, Mt. Lemmon Station  (N32.442547 W110.788920)
   US/Arizona.  Observers T. A. Pruyne, B. M. Africano, E. J. Christensen, G.
   A. Farneth, D. C. Fuls, A. R. Gibbs, A. D. Grauer, H. Gröller, J. A.
   Johnson, R. A. Kowalski, S. M. Larson, G. J. Leonard, D. Rankin, R. L.
   Seaman, F. C. Shelly. 1.0-m reflector + CCD.

Orbital elements:  C0Z1JL1 = ZTF0Csc = C21KXA2 = ZTF0Czu = 'Multijunk'
   Perigee 2020 Feb 2.353775 +/- 0.00289 TT =  8:29:26 (JD 2458881.853775)
A1: 2.67e-6 +/- 1.07e-7   A2: -7.45e-6 +/- 1.94e-6 AU/day^2
Epoch 2020 Feb  3.0 TT = JDT 2458882.5                        Find_Orb
M 102.421997702 +/- 0.25            (J2000 equator)
n 158.492801936 +/- 0.354           Peri.  321.483647 +/- 0.038
a 72990.07513 +/- 109               Node   343.489197 +/- 0.11
e   0.79627821 +/- 0.00196          Incl.   15.006623 +/- 0.0034
P3270.75m/2.271d           H 32.9   G  0.15   U 12.0
q 14869.66849 +/- 121    Q 131110.4817 +/- 338
29 of 36 observations 2020 Feb. 1-3 (47.8 hr); mean residual 1".761
Residuals in arcseconds: 
200130 703(2432-  612+)   200201 I41 4.13- 1.08+    200201 H01 1.80+ .110+
200130 703(2443-  620+)   200201 G96 .948- .768+    200201 I52 .285+ 1.98-
200130 703(2452-  619+)   200201 G96 .531- .139-    200201 I52 .491+ 1.77-
200130 I52(2511-  634+)   200201 H01 2.37+ .638+    200201 I52 .023- 1.75-
200130 I52(2512-  634+)   200201 I41 3.87- 1.88-    200201 G96 .786+ 1.36+
200130 I52(2512-  634+)   200201 I41 4.25- .939-    200201 G96 .694+ 1.10+
200130 I52(2513-  635+)   200201 H01 2.37+ .573+    200201 G96 .606+ 1.38+
200201 I41 4.32+ 1.01+    200201 I52 1.53- 1.33-    200201 G96 .658+ 1.32+
200201 I41 3.99+ 1.05+    200201 I52 1.33- 1.32-    200203 I41 .866- .932+
200201 G96 3.56+ .817-    200201 I52 1.57- 1.60-    200203 I41 .310+ .054-
200201 G96 .398+ .052-    200201 I52 1.64- .838-    200203 I41 .568- .199+
200201 I41 3.55- 1.31+    200201 H01 1.91+ .539+    200203 I41 1.23+ .479-

